Regional Weather Roundup
Issued by NWS

Home | Current Version | Previous Version | Text Only | Print | Product List | Glossary Off
Versions: 1 2 3 4 5 6 7 8 9 10 11 12 13 14 15 16 17 18 19 20 21 22 23 24 25 26 27 28 29 30 31 32 33 34 35 36 37 38 39 40 41 42 43 44 45 46 47 48 49 50

000
ASUS43 KLMK 252002
RWRKY
KENTUCKY REGIONAL WEATHER ROUNDUP
NATIONAL WEATHER SERVICE LOUISVILLE KY
400 PM EDT SUN SEP 25 2016

NOTE "FAIR" INDICATES FEW OR NO CLOUDS BELOW 12,000 FEET
WITH NO SIGNIFICANT WEATHER AND/OR OBSTRUCTIONS TO VISIBILITY.

KYZ001>023-026-027-061>063-070>075-252100-
WESTERN AND SOUTH CENTRAL KENTUCKY

CITY           SKY/WX    TMP DP  RH WIND       PRES   REMARKS
PADUCAH        SUNNY     91  66  43 S7        30.01F HX  93
HENDERSON      PTSUNNY   91  64  40 NE3       30.01F HX  93
OWENSBORO      SUNNY    N/A N/A N/A NE8       30.03F
HOPKINSVILLE   SUNNY     90  62  39 N6        30.03F HX  90
BOWLING GREEN  MOSUNNY   92  64  39 N5        30.03F HX  93
GLASGOW        NOT AVBL
$$

KYZ024-025-028>034-038-045-046-053-252100-
NORTH CENTRAL KENTUCKY

CITY           SKY/WX    TMP DP  RH WIND       PRES   REMARKS
LOUISVILLE/SDF MOSUNNY   90  62  39 S6        30.02F HX  90
LOUISVILLE/LOU SUNNY     90  62  39 VRB3      30.04F HX  90
FORT KNOX      SUNNY     87  64  46 NW3       30.03F
$$

KYZ035>037-039>044-047>052-055>060-089>105-252100-
NORTHEAST KENTUCKY

CITY           SKY/WX    TMP DP  RH WIND       PRES   REMARKS
LEXINGTON      PTSUNNY   88  62  41 CALM      30.07F
COVINGTON      MOSUNNY   86  64  47 CALM      30.07F
FRANKFORT      PTSUNNY   89  63  41 VRB3      30.04F HX  90
$$

KYZ054-064>069-076>088-106>120-252100-
SOUTHEAST KENTUCKY

CITY           SKY/WX    TMP DP  RH WIND       PRES   REMARKS
JACKSON        MOSUNNY   86  63  45 W3        30.09F
LONDON         MOSUNNY   88  59  37 N5        30.07F
SOMERSET       SUNNY     86  61  42 NW6       30.07F
MIDDLESBORO    CLOUDY    85  65  50 CALM      30.07F
MONTICELLO     MOCLDY    89  66  46 VRB6G21   30.07F HX  91
$$




USA.gov is the U.S. government's official web portal to all federal, state and local government web resources and services.